[[{"header":{"parameterUnit":"m.s-1","parameterCategory":1,"la1":30.2991,"la2":30.254,"lo1":-89.0895,"lo2":-89.0444,"dy":0.0017,"dx":0.0017,"nx":28,"ny":28,"refTime":"2024-06-11T03:00:00:Z","depth":0,"parameterNumber":2,"parameterNumberName":"U-component_of_WINDS"},"data":[0,0,0,0,0,0,0,0,0,0,0,0,0,0,0,0,0,0,0,0,0,0,0,0,0,0,0,0,0,0,0,0,0,0,0,0,0,0,0,0,0,0,0,0,0,0,0,0,0,0,0,0,0,0,0,0,0,0,-1.3993,-1.3992,0,-1.3891,-1.389,-1.3889,-1.3783,-1.3781,-1.378,-1.3779,-1.3673,-1.3672,-1.367,0,0,0,0,0,0,0,0,0,0,0,0,0,-1.4098,-1.4096,-1.3993,-1.3992,-1.3991,-1.3891,-1.389,-1.3888,-1.3783,-1.3781,-1.378,-1.3778,-1.3674,-1.3672,-1.367,0,0,0,0,0,0,0,0,0,0,0,0,0,-1.403,-1.4096,-1.3993,-1.3926,-1.3919,-1.3891,-1.389,-1.3888,-1.3784,-1.3781,-1.3779,-1.3777,-1.3674,-1.3672,-1.367,-1.37,0,0,-1.3663,-1.3662,0,0,0,0,0,0,0,0,-1.4034,-1.4026,-1.3937,-1.3931,-1.3923,-1.3847,-1.3888,-1.3825,-1.3784,-1.3835,-1.3779,-1.3776,-1.3733,-1.3726,-1.3711,-1.3695,-1.369,-1.3663,-1.3662,-1.3661,-1.366,0,0,0,0,0,0,0,-1.4039,-1.403,-1.3953,-1.3936,-1.3927,-1.3901,-1.3889,-1.3875,-1.3797,-1.383,-1.3823,-1.3812,-1.3728,-1.3714,-1.3708,-1.3689,-1.3663,-1.3661,-1.366,-1.3659,-1.3693,-1.3696,0,0,0,0,0,0,-1.4054,-1.4034,-1.3956,-1.395,-1.3974,-1.3901,-1.3888,-1.3874,-1.3797,-1.3783,-1.3814,-1.3807,-1.3718,-1.3711,-1.3704,-1.3735,-1.3661,-1.3659,-1.3658,-1.3691,-1.3694,-1.3696,0,0,0,0,0,0,-1.4056,-1.4048,-1.396,-1.399,-1.3977,-1.3902,-1.3887,-1.3873,-1.3858,-1.3785,-1.377,-1.3813,-1.3716,-1.3707,-1.3702,-1.373,-1.3658,-1.3656,-1.3689,-1.3692,-1.3695,-1.3797,0,0,0,0,0,0,-1.406,-1.4049,-1.406,-1.3991,-1.3976,-1.396,-1.3889,-1.3873,-1.3855,-1.3845,-1.378,-1.3767,-1.3714,-1.3706,-1.37,-1.3725,-1.3654,-1.3686,-1.369,-1.3694,-1.3791,-1.3803,-1.3814,0,0,0,0,0,-1.4064,-1.4092,-1.4061,-1.4052,-1.3987,-1.3962,-1.3953,-1.3892,-1.3857,-1.3867,-1.3821,-1.3769,-1.3728,-1.3706,-1.3699,-1.3724,-1.3684,-1.3689,-1.3694,-1.3786,-1.3801,-1.3814,0,0,0,0,0,0,-1.4165,-1.4081,-1.4046,-1.4053,-1.4015,-1.3944,-1.3955,-1.3909,-1.3881,-1.3873,-1.3798,-1.3784,-1.3788,-1.3755,-1.3733,-1.375,-1.3699,-1.3702,-1.3771,-1.3785,-1.3797,-1.3805,-1.3652,0,0,0,0,0,-1.4188,-1.4175,-1.4102,-1.4115,-1.4099,-1.4031,-1.4017,-1.3973,-1.3931,-1.3915,-1.3867,-1.3829,-1.3807,-1.3794,-1.377,-1.3786,-1.377,-1.3799,-1.3811,-1.3821,-1.3825,-1.3833,-1.3845,-1.3713,-1.3713,-1.3713,0,0,-1.4236,-1.4189,-1.4185,-1.4135,-1.41,-1.4089,-1.4018,-1.4008,-1.3998,-1.3913,-1.3906,-1.387,-1.3822,-1.3828,-1.3828,-1.3801,-1.3858,-1.3827,-1.3836,-1.3834,-1.3839,-1.3852,-1.3863,-1.3716,-1.3716,-1.3715,0,0,-1.4317,-1.4279,-1.4287,-1.4254,-1.4204,-1.4158,-1.4161,-1.4096,-1.407,-1.4061,-1.3998,-1.3985,-1.3949,-1.3918,-1.3897,-1.3969,-1.3921,-1.3963,-1.4024,-1.4032,-1.4042,-1.4051,-1.4078,-1.4088,-1.3967,-1.3967,-1.3967,0,-1.4382,-1.4362,-1.4296,-1.4291,-1.4271,-1.4194,-1.4201,-1.4173,-1.4117,-1.4106,-1.4076,-1.403,-1.3992,-1.399,-1.4008,-1.3993,-1.3994,-1.397,-1.4046,-1.4054,-1.4062,-1.4086,-1.4096,-1.3973,-1.3972,-1.3972,-1.3971,0,-1.4446,-1.4433,-1.4445,-1.4394,-1.4375,-1.4376,-1.4311,-1.4301,-1.4259,-1.4217,-1.421,-1.4162,-1.4128,-1.4124,-1.4082,-1.4117,-1.4102,-1.406,-1.4007,-1.4081,-1.4103,-1.4112,-1.3981,-1.3979,-1.3977,-1.3976,0,0,-1.4587,-1.4501,-1.4506,-1.4483,-1.4422,-1.4411,-1.4409,-1.4376,-1.4369,-1.4333,-1.433,-1.4302,-1.4264,-1.4241,-1.4195,-1.4202,-1.4264,-1.416,-1.4157,-1.4182,-1.43,-1.4333,-1.4345,-1.4232,-1.4233,-1.4234,-1.4305,0,-1.4658,-1.465,-1.4591,-1.46,-1.4588,-1.4516,-1.4514,-1.4477,-1.4438,-1.4422,-1.4379,-1.4361,-1.4311,-1.4297,-1.4301,-1.4256,-1.4287,-1.4249,-1.4229,-1.4229,-1.4244,-1.4356,-1.4389,-1.4458,-1.4313,-1.4314,-1.4315,0,-1.4739,-1.471,-1.4719,-1.4659,-1.4652,-1.4652,-1.4617,-1.4603,-1.456,-1.4531,-1.4507,-1.4456,-1.445,-1.4401,-1.4392,-1.4369,-1.4357,-1.4333,-1.4334,-1.4331,-1.4277,-1.4356,-1.4479,-1.449,-1.4328,-1.4327,-1.4326,0,-1.4843,-1.4806,-1.4806,-1.4788,-1.4719,-1.4721,-1.4692,-1.4646,-1.4631,-1.4601,-1.459,-1.456,-1.4544,-1.4522,-1.4464,-1.4433,-1.4463,-1.4408,-1.444,-1.4442,-1.4449,-1.445,-1.4573,-1.4441,-1.4441,-1.4441,-1.4441,0,-1.4929,-1.4937,-1.4852,-1.4852,-1.486,-1.4793,-1.4802,-1.4766,-1.4727,-1.4719,-1.4654,-1.4649,-1.4573,-1.4559,-1.4514,-1.4515,-1.4507,-1.4484,-1.4473,-1.4491,-1.4494,-1.4482,-1.4476,-1.4443,-1.4443,-1.4442,-1.4442,0,-1.5046,-1.4989,-1.4985,-1.492,-1.4904,-1.4913,-1.4857,-1.4855,-1.4813,-1.4805,-1.4799,-1.4732,-1.4713,-1.4653,-1.4618,-1.4588,-1.4603,-1.4579,-1.4618,-1.461,-1.4645,-1.4643,-1.4766,-1.4779,-1.4638,-1.464,-1.4641,0,-1.5105,-1.511,-1.5046,-1.5037,-1.5011,-1.4996,-1.498,-1.4915,-1.4901,-1.4854,-1.4858,-1.4833,-1.481,-1.4782,-1.4731,-1.4704,-1.468,-1.4725,-1.4675,-1.4694,-1.4682,-1.4683,-1.4683,-1.4736,-1.4738,-1.4739,-1.474,0,-1.5216,-1.5188,-1.5168,-1.5138,-1.5121,-1.5095,-1.5064,-1.506,-1.4987,-1.4975,-1.4955,-1.4937,-1.4902,-1.4879,-1.4844,-1.4814,-1.4766,-1.4757,-1.4763,-1.4781,-1.4804,-1.4793,-1.4648,-1.4754,-1.4753,-1.4752,-1.4751,-1.475,-1.5306,-1.5307,-1.5263,-1.5243,-1.5214,-1.5188,-1.5183,-1.5141,-1.5123,-1.509,-1.5052,-1.5036,-1.4994,-1.4943,-1.4917,-1.4904,-1.4878,-1.4886,-1.4889,-1.4892,-1.4901,-1.4806,-1.4898,-1.4897,-1.4897,-1.4896,-1.4896,0,-1.5414,-1.5383,-1.5365,-1.5325,-1.531,-1.5266,-1.5231,-1.5221,-1.5208,-1.5173,-1.5152,-1.513,-1.5107,-1.5055,-1.5028,-1.5028,-1.5005,-1.5023,-1.5022,-1.5017,-1.4925,-1.4924,-1.5042,-1.5042,-1.5042,-1.5042,-1.5042,-1.5042,-1.5469,-1.547,-1.5437,-1.5423,-1.5391,-1.5375,-1.5359,-1.5335,-1.5307,-1.5285,-1.5266,-1.5232,-1.5191,-1.516,-1.5138,-1.5123,-1.5117,-1.5142,-1.5121,-1.5037,-1.5023,-1.5009,-1.5007,-1.5141,-1.5141,-1.5212,-1.5213,-1.5214]},{"header":{"parameterUnit":"m.s-1","parameterCategory":1,"la1":30.2991,"la2":30.254,"lo1":-89.0895,"lo2":-89.0444,"dy":0.0017,"dx":0.0017,"nx":28,"ny":28,"refTime":"2024-06-11T03:00:00:Z","depth":0,"parameterNumber":3,"parameterNumberName":"V-component_of_WINDS"},"data":[0,0,0,0,0,0,0,0,0,0,0,0,0,0,0,0,0,0,0,0,0,0,0,0,0,0,0,0,0,0,0,0,0,0,0,0,0,0,0,0,0,0,0,0,0,0,0,0,0,0,0,0,0,0,0,0,0,0,2.0791,2.079,0,2.0739,2.0738,2.0737,2.0696,2.0695,2.0695,2.0695,2.0635,2.0634,2.0633,0,0,0,0,0,0,0,0,0,0,0,0,0,2.0851,2.0851,2.0791,2.079,2.079,2.0739,2.0738,2.0737,2.0696,2.0695,2.0695,2.0695,2.0635,2.0634,2.0633,0,0,0,0,0,0,0,0,0,0,0,0,0,2.0815,2.085,2.0791,2.0763,2.076,2.0739,2.0738,2.0737,2.0696,2.0695,2.0695,2.0694,2.0636,2.0634,2.0632,2.0633,0,0,2.0627,2.0626,0,0,0,0,0,0,0,0,2.0817,2.0812,2.0768,2.0765,2.0761,2.0723,2.0737,2.0702,2.0696,2.072,2.0695,2.0694,2.0664,2.066,2.0652,2.063,2.0628,2.0627,2.0625,2.0625,2.0624,0,0,0,0,0,0,0,2.0819,2.0814,2.077,2.0767,2.0763,2.0752,2.0746,2.073,2.0696,2.0718,2.0715,2.071,2.0663,2.0653,2.065,2.0627,2.0627,2.0625,2.0624,2.0623,2.0605,2.0605,0,0,0,0,0,0,2.0827,2.0817,2.0772,2.0768,2.0788,2.0751,2.0745,2.0736,2.0696,2.069,2.071,2.0708,2.0657,2.0652,2.0648,2.0646,2.0625,2.0623,2.0622,2.0604,2.0605,2.0605,0,0,0,0,0,0,2.0828,2.0823,2.0774,2.0792,2.0785,2.0751,2.0741,2.0735,2.0726,2.069,2.0683,2.0707,2.0656,2.065,2.0638,2.0643,2.0622,2.062,2.0603,2.0604,2.0605,2.0642,0,0,0,0,0,0,2.083,2.0824,2.0824,2.0792,2.0784,2.0766,2.0742,2.0735,2.0724,2.072,2.0686,2.0679,2.0655,2.0641,2.0636,2.064,2.0619,2.0602,2.0604,2.0605,2.064,2.0644,2.0648,0,0,0,0,0,2.0833,2.0835,2.0825,2.0819,2.0784,2.0766,2.0761,2.0735,2.0724,2.0724,2.0702,2.0681,2.0644,2.064,2.0634,2.0638,2.0602,2.0603,2.0605,2.0639,2.0644,2.0648,0,0,0,0,0,0,2.0866,2.083,2.0818,2.0811,2.0792,2.0759,2.0757,2.0741,2.0723,2.072,2.0687,2.0679,2.067,2.0653,2.0649,2.0637,2.062,2.0621,2.0648,2.0653,2.0656,2.0659,2.0618,0,0,0,0,0,2.0873,2.0863,2.0832,2.0829,2.082,2.0791,2.0782,2.0764,2.0743,2.0734,2.071,2.0688,2.0672,2.0662,2.0645,2.0639,2.063,2.0639,2.0643,2.0646,2.0646,2.0642,2.0645,2.061,2.061,2.061,0,0,2.0886,2.0866,2.0861,2.0835,2.0818,2.0808,2.0784,2.0773,2.0765,2.0731,2.0718,2.0701,2.0675,2.0666,2.0661,2.0651,2.0655,2.0648,2.0651,2.0648,2.0644,2.0647,2.065,2.0611,2.0611,2.061,0,0,2.0905,2.0889,2.0885,2.087,2.0846,2.0827,2.0827,2.0797,2.0785,2.0772,2.0747,2.0736,2.0709,2.0692,2.0679,2.0696,2.0676,2.0692,2.071,2.0706,2.0709,2.0711,2.0716,2.0719,2.0692,2.0692,2.0692,0,2.0924,2.0908,2.0884,2.0876,2.0865,2.0838,2.0833,2.0819,2.079,2.0783,2.0774,2.0741,2.0721,2.0708,2.0713,2.0704,2.0701,2.0694,2.0711,2.0713,2.0715,2.0719,2.0721,2.0694,2.0694,2.0694,2.0693,0,2.0932,2.0922,2.0921,2.0897,2.0887,2.088,2.0854,2.0847,2.0831,2.0813,2.0801,2.0777,2.0756,2.0752,2.0735,2.0737,2.0732,2.0718,2.0699,2.0721,2.0724,2.0726,2.0697,2.0696,2.0696,2.0695,0,0,2.0966,2.0932,2.0932,2.0922,2.0895,2.0886,2.0879,2.0861,2.0854,2.0836,2.0829,2.0808,2.0796,2.0782,2.0763,2.0761,2.0775,2.0747,2.0746,2.0752,2.0776,2.0785,2.0788,2.0764,2.0764,2.0764,2.0778,0,2.0979,2.0966,2.0946,2.0939,2.0929,2.0905,2.0899,2.0882,2.0866,2.0854,2.0836,2.0822,2.0807,2.0798,2.0795,2.0774,2.0779,2.0773,2.0754,2.0754,2.0759,2.079,2.0799,2.0813,2.0779,2.0779,2.0779,0,2.0992,2.0978,2.0971,2.0948,2.0943,2.0937,2.092,2.091,2.089,2.0879,2.0866,2.0847,2.0837,2.0824,2.081,2.0806,2.0798,2.0787,2.0786,2.0781,2.0766,2.0784,2.0816,2.0818,2.0781,2.0781,2.0781,0,2.1017,2.0997,2.099,2.0981,2.0954,2.0951,2.0939,2.092,2.091,2.0895,2.0889,2.0872,2.0862,2.0849,2.0826,2.0818,2.0814,2.0798,2.0803,2.0804,2.08,2.08,2.083,2.0799,2.0799,2.0799,2.0799,0,2.1032,2.1028,2.1001,2.0996,2.0991,2.0969,2.0964,2.095,2.0933,2.0925,2.0904,2.0896,2.0867,2.0856,2.0838,2.0829,2.0825,2.0815,2.0809,2.0815,2.0817,2.0807,2.0805,2.0799,2.0799,2.0799,2.0799,0,2.1057,2.1039,2.103,2.1007,2.1001,2.0998,2.0977,2.0971,2.0956,2.0946,2.0942,2.0917,2.0903,2.088,2.0859,2.0847,2.0841,2.0833,2.0848,2.0844,2.085,2.0849,2.0873,2.0874,2.0844,2.0844,2.0845,0,2.1067,2.1064,2.1042,2.1036,2.1026,2.1016,2.1008,2.0986,2.0978,2.0957,2.0954,2.094,2.0926,2.0905,2.0884,2.0868,2.0859,2.0869,2.0856,2.0863,2.0857,2.0857,2.0856,2.087,2.0871,2.0871,2.0872,0,2.1087,2.1079,2.1069,2.1056,2.1047,2.1035,2.1022,2.1018,2.0994,2.0985,2.0973,2.0963,2.0943,2.0928,2.091,2.0896,2.0879,2.0877,2.0876,2.0881,2.0889,2.0884,2.0854,2.0875,2.0875,2.0874,2.0874,2.0874,2.1104,2.1101,2.1085,2.1074,2.1063,2.1052,2.1046,2.1031,2.1021,2.1004,2.0993,2.098,2.0962,2.0937,2.0925,2.0914,2.0906,2.0906,2.0906,2.0906,2.0908,2.0894,2.0911,2.0911,2.0911,2.091,2.091,0,2.1121,2.1111,2.1102,2.1086,2.1078,2.1066,2.1052,2.1045,2.1036,2.1021,2.101,2.0996,2.0982,2.0962,2.0946,2.0942,2.0934,2.0938,2.0937,2.0934,2.0916,2.0917,2.0945,2.0945,2.0945,2.0945,2.0945,2.0945,2.1129,2.1123,2.1114,2.1102,2.1091,2.108,2.1073,2.1063,2.1052,2.1037,2.1027,2.1015,2.0998,2.0982,2.0969,2.0963,2.0957,2.0964,2.0956,2.0939,2.0935,2.0932,2.0933,2.0964,2.0964,2.0974,2.0975,2.0975]}]]